ICT,Max TemperatureF,Mean TemperatureF,Min TemperatureF,Max Dew PointF,MeanDew PointF,Min DewpointF,Max Humidity, Mean Humidity, Min Humidity, Max Sea Level PressureIn, Mean Sea Level PressureIn, Min Sea Level PressureIn, Max VisibilityMiles, Mean VisibilityMiles, Min VisibilityMiles, Max Wind SpeedMPH, Mean Wind SpeedMPH, Max Gust SpeedMPH,PrecipitationIn, CloudCover, Events, WindDirDegrees
2012-11-1,87,82,78,77,70,64,89,65,39,29.92,29.85,29.80,6,6,6,7,2,,0.00,4,,41
2012-11-2,92,85,78,75,73,70,89,67,42,29.89,29.83,29.77,6,6,4,8,2,,0.00,5,,339
2012-11-3,96,88,80,77,75,72,84,68,40,29.89,29.82,29.77,6,5,3,8,1,,0.00,4,,22
2012-11-4,95,88,81,77,75,72,89,65,39,29.89,29.82,29.74,6,5,2,9,2,,0.00,4,,37
2012-11-5,96,89,82,77,75,72,84,65,36,29.86,29.80,29.74,6,5,2,7,2,,0.00,3,,182
2012-11-6,95,88,80,77,75,72,79,67,44,29.92,29.83,29.77,6,6,5,8,4,,0.00,6,,266
2012-11-7,97,90,82,77,76,73,84,69,41,29.86,29.80,29.71,6,6,6,9,3,,0.00,5,,176
2012-11-8,91,86,80,79,77,73,89,73,55,29.86,29.78,29.71,6,6,5,13,3,,0.00,6,,257
2012-11-9,94,88,81,79,77,75,89,75,51,29.86,29.79,29.74,6,6,6,13,3,,0.08,5,Rain,211
2012-11-10,98,90,81,79,76,72,94,69,38,29.89,29.80,29.71,6,6,5,9,4,,0.00,3,,176
2012-11-11,95,88,81,77,75,73,84,70,43,29.89,29.80,29.71,6,6,5,21,4,32,0.00,5,Rain,84
2012-11-12,87,82,78,77,75,72,89,78,57,29.92,29.85,29.77,6,6,6,12,5,,0.00,6,,360
2012-11-13,94,86,77,79,75,73,89,74,49,29.92,29.85,29.74,6,5,3,12,6,,0.00,6,,353
2012-11-14,93,86,80,79,73,68,89,68,37,29.86,29.81,29.74,6,6,4,12,4,,0.00,6,,21
2012-11-15,95,87,79,77,74,70,89,66,43,29.89,29.81,29.74,6,6,4,12,3,,0.00,5,,4
2012-11-16,90,86,81,75,72,64,79,63,43,29.89,29.83,29.77,6,6,6,10,6,,0.00,5,,8
2012-11-17,94,86,78,79,74,72,89,70,53,29.89,29.82,29.74,6,6,5,12,5,,0.03,6,Rain,57
2012-11-18,92,85,78,77,75,72,89,73,44,29.89,29.83,29.77,6,6,6,12,4,22,0.00,6,,122
2012-11-19,88,83,78,77,74,71,89,74,49,29.92,29.84,29.77,6,6,6,12,4,,0.00,5,,108
2012-11-20,89,84,80,79,76,73,89,79,64,29.92,29.85,29.77,6,5,3,9,4,,0.08,6,Rain,298
2012-11-21,93,86,78,78,76,72,94,74,45,29.92,29.84,29.77,6,5,3,9,4,,0.08,6,Rain,228
2012-11-22,94,86,79,77,76,73,89,70,42,29.89,29.80,29.71,6,6,3,14,5,,0.28,5,Rain-Thunderstorm,222
2012-11-23,96,88,80,79,76,73,89,71,37,29.86,29.79,29.71,6,6,6,9,3,,0.00,4,,201
2012-11-24,90,84,77,79,76,72,94,81,61,29.89,29.81,29.74,6,5,2,17,4,,0.35,5,Rain-Thunderstorm,126
2012-11-25,88,82,77,77,75,73,94,84,66,29.92,29.85,29.77,6,5,3,7,3,,0.08,6,Rain,353
2012-11-26,89,82,75,77,75,70,94,80,50,29.92,29.85,29.77,6,5,2,23,3,,0.83,6,Rain-Thunderstorm,76
2012-11-27,90,83,76,77,74,72,94,75,50,29.89,29.82,29.74,6,6,6,12,2,,0.00,6,,154
2012-11-28,82,78,75,79,76,73,100,90,73,29.89,29.83,29.77,6,6,1,15,4,,3.19,6,Rain-Thunderstorm,286
2012-11-29,87,82,76,77,75,73,97,81,61,29.89,29.82,29.77,6,6,4,9,4,,0.00,6,,90
2012-11-30,90,84,77,77,74,72,100,74,46,29.86,29.81,29.74,6,5,1,9,4,,0.00,5,,300